DW5678 Kavala GR current weather conditions

sailwx.info

Wind from 133 at 0 knots gusting 5

Air temperature 28.3° C
Dewpoint 20.9° C

Last reported at 2014-Jul-30 08:45 UTC.
Time now 2014-Jul-30 09:08 UTC

Location: N 40°56' E 024°24'.
View on Google Maps.

See reports from other nearby stations

  
Tides and Currents Weather Stations Pressure Air Temp Water Temp Dewpoint Dewpoint Depression Visibility Wind Speed Wind Dir Waves Ship Positions
date/time (UTC)wind fromknots sea level pressurealtimeterstation pressurevisibilityair tempwater tempwave heightnotes
2014-Jul-30 08:45 133 0 gusting 5 28.3
2014-Jul-30 08:30 126 0 gusting 6 27.8
2014-Jul-30 08:15 123 0 gusting 5 28.3
2014-Jul-30 08:00 136 1 gusting 4 28.3
2014-Jul-30 07:45 132 0 gusting 5 27.2
2014-Jul-30 07:30 134 1 gusting 5 27.2
2014-Jul-30 07:15 138 1 gusting 4 27.2
2014-Jul-30 07:00 122 0 gusting 4 26.7
2014-Jul-30 06:45 119 0 gusting 5 26.7
2014-Jul-30 06:30 147 1 gusting 5 26.7
2014-Jul-30 06:15 094 0 gusting 2 27.2
2014-Jul-30 06:00 118 0 gusting 4 26.7
2014-Jul-30 05:45 115 26.7
2014-Jul-30 05:30 043 0 gusting 2 26.7
2014-Jul-30 05:15 039 0 gusting 2 26.1
2014-Jul-30 05:00 040 25.6
2014-Jul-30 04:45 047 0 gusting 4 25.6
2014-Jul-30 04:30 029 0 gusting 5 25.0
2014-Jul-30 04:15 026 1 gusting 4 25.0
2014-Jul-30 04:00 041 1 gusting 6 24.4
2014-Jul-30 03:45 038 3 gusting 6 24.4
2014-Jul-30 03:30 032 2 gusting 6 24.4
2014-Jul-30 03:15 028 2 gusting 5 24.4
2014-Jul-30 03:00 034 0 gusting 2 25.0
2014-Jul-30 02:45 032 0 gusting 2 25.0
2014-Jul-30 02:15 013 25.0
2014-Jul-30 02:00 017 25.0
2014-Jul-30 01:45 005 25.0
2014-Jul-30 01:30 005 25.0
2014-Jul-30 01:15 005 25.0
2014-Jul-30 01:00 005 25.0
2014-Jul-30 00:45 005 25.0
2014-Jul-30 00:30 005 25.0
2014-Jul-30 00:15 019 25.0
2014-Jul-30 00:00 043 25.6
2014-Jul-29 23:45 043 0 gusting 2 25.6
2014-Jul-29 23:30 030 25.6
2014-Jul-29 23:15 030 25.6
2014-Jul-29 23:00 030 26.1
2014-Jul-29 22:45 030 26.1
2014-Jul-29 22:30 030 26.1
2014-Jul-29 22:15 030 26.1
2014-Jul-29 22:00 030 26.1
2014-Jul-29 21:45 030 26.1
2014-Jul-29 21:30 030 26.1
2014-Jul-29 21:15 030 26.1
2014-Jul-29 21:00 030 26.7
2014-Jul-29 20:45 030 26.7
2014-Jul-29 20:30 333 26.1
2014-Jul-29 20:15 038 0 gusting 2 26.1
2014-Jul-29 20:00 053 0 gusting 6 26.1
2014-Jul-29 19:45 034 2 gusting 6 26.1
2014-Jul-29 19:30 040 0 gusting 2 26.7
2014-Jul-29 19:15 054 26.7
2014-Jul-29 19:00 054 26.7
2014-Jul-29 18:45 054 26.7
2014-Jul-29 18:30 055 26.7
2014-Jul-29 18:15 055 26.7
2014-Jul-29 18:00 052 0 gusting 2 26.7
2014-Jul-29 17:45 298 26.7
2014-Jul-29 17:30 213 27.2
2014-Jul-29 17:15 225 27.8
2014-Jul-29 17:00 213 1 gusting 4 28.3
2014-Jul-29 16:45 225 28.9
2014-Jul-29 16:30 211 28.9
2014-Jul-29 16:15 201 28.3
2014-Jul-29 16:00 208 0 gusting 1 28.3
2014-Jul-29 15:45 240 0 gusting 2 28.3
2014-Jul-29 15:30 115 0 gusting 2 28.3
2014-Jul-29 15:15 206 0 gusting 2 28.3
2014-Jul-29 15:00 223 0 gusting 2 28.9
2014-Jul-29 14:45 232 0 gusting 4 28.9
2014-Jul-29 14:30 194 0 gusting 5 28.9
2014-Jul-29 14:15 202 0 gusting 2 28.3
2014-Jul-29 14:00 239 0 gusting 4 28.3
2014-Jul-29 13:45 245 0 gusting 4 28.3
2014-Jul-29 13:30 236 0 gusting 5 28.3
2014-Jul-29 13:15 147 0 gusting 4 28.9
2014-Jul-29 13:00 196 1 gusting 6 28.3
2014-Jul-29 12:45 228 2 gusting 6 28.3
2014-Jul-29 12:30 153 28.9
2014-Jul-29 12:15 213 1 gusting 5 29.4
2014-Jul-29 12:00 128 1 gusting 4 30.0
2014-Jul-29 11:45 131 1 gusting 6 29.4
2014-Jul-29 11:30 172 2 gusting 5 30.0
2014-Jul-29 11:15 154 1 gusting 5 30.0
2014-Jul-29 11:00 224 0 gusting 5 30.0
2014-Jul-29 10:45 210 1 gusting 6 29.4
2014-Jul-29 10:30 151 1 gusting 6 29.4
2014-Jul-29 10:15 147 1 gusting 6 29.4
2014-Jul-29 10:00 150 1 gusting 6 29.4
2014-Jul-29 09:45 110 1 gusting 5 28.9
2014-Jul-29 09:30 200 1 gusting 5 28.9
2014-Jul-29 09:15 151 1 gusting 4 28.9
2014-Jul-29 09:00 159 1 gusting 5 28.9
2014-Jul-29 08:45 212 1 gusting 6 29.4
2014-Jul-29 08:30 211 0 gusting 5 28.9
2014-Jul-29 08:15 165 0 gusting 4 28.9
2014-Jul-29 08:00 161 0 gusting 4 28.3
2014-Jul-29 07:45 174 0 gusting 2 28.3
2014-Jul-29 07:30 230 0 gusting 2 28.3
2014-Jul-29 07:15 193 1 gusting 4 27.8
2014-Jul-29 07:00 136 1 gusting 2 27.2
2014-Jul-29 06:45 137 0 gusting 5 27.2
2014-Jul-29 06:30 144 0 gusting 2 27.2
2014-Jul-29 06:15 217 1 gusting 4 27.8
2014-Jul-29 06:00 225 0 gusting 2 27.8
2014-Jul-29 05:45 239 0 gusting 2 27.2
2014-Jul-29 05:30 264 27.2
2014-Jul-29 05:15 283 26.7
2014-Jul-29 05:00 294 26.7
2014-Jul-29 04:45 294 26.1
2014-Jul-29 04:30 294 25.6
2014-Jul-29 04:15 294 25.0
2014-Jul-29 04:00 294 25.0
2014-Jul-29 03:45 294 24.4
2014-Jul-29 03:30 294 25.0
2014-Jul-29 03:15 294 24.4
2014-Jul-29 03:00 293 24.4
2014-Jul-29 02:45 293 24.4
2014-Jul-29 02:30 293 24.4
2014-Jul-29 02:15 293 25.0
2014-Jul-29 02:00 293 25.0
2014-Jul-29 01:45 293 25.0
2014-Jul-29 01:30 293 25.0
2014-Jul-29 01:15 293 25.0
2014-Jul-29 01:00 293 25.0
2014-Jul-29 00:45 293 25.0
2014-Jul-29 00:30 293 25.0
2014-Jul-29 00:15 293 25.0
2014-Jul-29 00:00 293 25.0
2014-Jul-28 23:45 293 25.6
2014-Jul-28 23:30 293 25.6
2014-Jul-28 23:15 293 25.6
2014-Jul-28 23:00 293 25.6
2014-Jul-28 22:45 293 25.6
2014-Jul-28 22:30 293 25.6
2014-Jul-28 22:15 293 25.6
2014-Jul-28 22:00 293 26.1
2014-Jul-28 21:45 293 26.1
2014-Jul-28 21:30 293 26.1
2014-Jul-28 21:15 293 26.1
2014-Jul-28 21:00 293 26.7
2014-Jul-28 20:45 293 26.7
2014-Jul-28 20:30 293 26.7
2014-Jul-28 20:15 293 26.7
2014-Jul-28 20:00 293 27.2
2014-Jul-28 19:45 293 27.2
2014-Jul-28 19:30 294 26.7
2014-Jul-28 19:15 294 26.7
2014-Jul-28 19:00 294 27.2
2014-Jul-28 18:45 294 27.2
2014-Jul-28 18:30 294 27.2
2014-Jul-28 18:15 063 27.2
2014-Jul-28 18:00 163 27.8
2014-Jul-28 17:45 198 27.8
2014-Jul-28 17:30 198 27.8
2014-Jul-28 17:15 198 28.3
2014-Jul-28 17:00 198 28.3
2014-Jul-28 16:45 198 28.3
2014-Jul-28 16:30 198 28.3
2014-Jul-28 16:15 208 28.3
2014-Jul-28 16:00 220 1 gusting 2 28.9
2014-Jul-28 15:45 193 28.9
2014-Jul-28 15:30 202 1 gusting 2 28.9
2014-Jul-28 15:15 229 0 gusting 2 29.4
2014-Jul-28 15:00 220 1 gusting 2 29.4
2014-Jul-28 14:45 194 0 gusting 2 29.4
2014-Jul-28 14:30 160 28.9
2014-Jul-28 14:15 188 1 gusting 4 28.3
2014-Jul-28 14:00 175 0 gusting 4 28.9
2014-Jul-28 13:45 158 0 gusting 6 28.9
2014-Jul-28 13:30 190 1 gusting 6 29.4
2014-Jul-28 13:15 197 1 gusting 6 30.0
2014-Jul-28 13:00 116 2 gusting 6 30.0
2014-Jul-28 12:45 149 3 gusting 6 29.4
2014-Jul-28 12:30 137 1 gusting 6 30.0
2014-Jul-28 12:15 131 2 gusting 8 30.6
2014-Jul-28 12:00 100 1 gusting 5 30.0
2014-Jul-28 11:45 146 0 gusting 5 30.0
2014-Jul-28 11:30 048 1 gusting 6 30.0
2014-Jul-28 11:15 120 1 gusting 6 30.0
2014-Jul-28 11:00 124 0 gusting 7 29.4
2014-Jul-28 10:45 108 1 gusting 8 28.3
2014-Jul-28 10:30 139 2 gusting 7 28.3
2014-Jul-28 10:15 127 2 gusting 8 27.8
2014-Jul-28 10:00 141 4 gusting 7 28.3
2014-Jul-28 09:45 063 1 gusting 7 27.8
2014-Jul-28 09:30 115 1 gusting 6 28.3
2014-Jul-28 09:15 057 1 gusting 8 28.3
2014-Jul-28 09:00 109 1 gusting 6 28.3